[[{"header":{"parameterUnit":"m.s-1","parameterCategory":1,"la1":30.2991,"la2":30.254,"lo1":-89.0895,"lo2":-89.0444,"dy":0.0017,"dx":0.0017,"nx":28,"ny":28,"refTime":"2024-04-04T03:00:00:Z","depth":0,"parameterNumber":2,"parameterNumberName":"U-component_of_WINDS"},"data":[0,0,0,0,0,0,0,0,0,0,0,0,0,0,0,0,0,0,0,0,0,0,0,0,0,0,0,0,0,0,0,0,0,0,0,0,0,0,0,0,0,0,0,0,0,0,0,0,0,0,0,0,0,0,0,0,0,0,2.1122,2.1122,0,2.1137,2.1137,2.1137,2.1123,2.1122,2.1122,2.1121,2.1135,2.1136,2.1137,0,0,0,0,0,0,0,0,0,0,0,0,0,2.108,2.108,2.1122,2.1122,2.1122,2.1137,2.1137,2.1137,2.1123,2.1122,2.1122,2.1121,2.1135,2.1136,2.1137,0,0,0,0,0,0,0,0,0,0,0,0,0,2.1097,2.1081,2.1122,2.1117,2.1117,2.1137,2.1137,2.1137,2.1123,2.1122,2.1122,2.1121,2.1135,2.1136,2.1137,2.1163,0,0,2.1142,2.1142,0,0,0,0,0,0,0,0,2.1096,2.1098,2.1117,2.1117,2.1117,2.1127,2.1127,2.1146,2.1123,2.1121,2.1121,2.112,2.1133,2.1135,2.1139,2.1163,2.1164,2.1142,2.1142,2.1143,2.1143,0,0,0,0,0,0,0,2.1095,2.1097,2.1128,2.1118,2.1117,2.1114,2.1115,2.1131,2.1132,2.1121,2.112,2.1122,2.1133,2.1138,2.114,2.1164,2.1142,2.1143,2.1144,2.1144,2.121,2.1211,0,0,0,0,0,0,2.1094,2.1097,2.1127,2.1128,2.1104,2.1115,2.1117,2.1125,2.1131,2.1132,2.1123,2.1121,2.1136,2.1138,2.114,2.1169,2.1143,2.1144,2.1145,2.1209,2.121,2.1211,0,0,0,0,0,0,2.1093,2.1097,2.1127,2.1112,2.1116,2.1117,2.1126,2.1126,2.1131,2.1133,2.1133,2.1128,2.1136,2.1138,2.1157,2.117,2.1145,2.1146,2.1208,2.1209,2.121,2.1229,0,0,0,0,0,0,2.1092,2.1097,2.1106,2.1113,2.1116,2.1144,2.1127,2.1126,2.1133,2.1131,2.1137,2.1138,2.1135,2.1155,2.1159,2.1171,2.1147,2.1206,2.1208,2.121,2.1227,2.1231,2.1234,0,0,0,0,0,2.1091,2.1111,2.1107,2.1111,2.1129,2.1145,2.1147,2.1144,2.1134,2.1144,2.1145,2.1137,2.1168,2.1157,2.1161,2.1174,2.1206,2.1208,2.121,2.1226,2.123,2.1234,0,0,0,0,0,0,2.1106,2.1112,2.1107,2.113,2.1137,2.1142,2.1154,2.1149,2.1158,2.1156,2.1152,2.1153,2.1173,2.1176,2.1164,2.1199,2.1185,2.1188,2.1196,2.1201,2.1204,2.1202,2.1148,0,0,0,0,0,2.1112,2.1125,2.1129,2.1149,2.1153,2.1153,2.116,2.1157,2.1164,2.1166,2.1169,2.1176,2.1187,2.1194,2.1204,2.1228,2.1229,2.1239,2.1243,2.1245,2.1247,2.126,2.1264,2.1218,2.1218,2.1218,0,0,2.1124,2.1129,2.1137,2.1152,2.1157,2.117,2.1155,2.117,2.1179,2.1168,2.1186,2.1189,2.1196,2.1217,2.1227,2.122,2.1261,2.1248,2.125,2.1251,2.1262,2.1267,2.127,2.1219,2.1219,2.1219,0,0,2.1153,2.1159,2.1176,2.1181,2.1189,2.1189,2.1194,2.12,2.1201,2.1219,2.1212,2.1223,2.1242,2.1247,2.1252,2.1284,2.1277,2.1288,2.1305,2.1317,2.1321,2.1324,2.1334,2.1338,2.129,2.1291,2.1291,0,2.1167,2.1187,2.1185,2.12,2.1206,2.1198,2.1215,2.122,2.1231,2.1235,2.1228,2.1252,2.1256,2.1279,2.1287,2.1292,2.1295,2.1286,2.132,2.1324,2.1326,2.1336,2.134,2.1292,2.1292,2.1291,2.1291,0,2.1203,2.1217,2.123,2.1241,2.1249,2.1265,2.1265,2.1273,2.127,2.1271,2.129,2.1295,2.1306,2.1311,2.1308,2.1333,2.1329,2.1321,2.1307,2.1332,2.1341,2.1345,2.1293,2.1293,2.1293,2.1292,0,0,2.1241,2.1251,2.1256,2.1261,2.127,2.128,2.1295,2.1307,2.1314,2.1322,2.1334,2.1351,2.1344,2.135,2.1348,2.1359,2.1383,2.135,2.135,2.1354,2.1409,2.1414,2.1419,2.1379,2.138,2.138,2.1408,0,2.1269,2.1296,2.1295,2.132,2.1332,2.1326,2.1339,2.1346,2.1347,2.1358,2.136,2.1371,2.1362,2.1365,2.1376,2.1378,2.1393,2.1376,2.1389,2.139,2.1386,2.1424,2.1429,2.1455,2.1412,2.1413,2.1413,0,2.1305,2.1315,2.1342,2.1349,2.1354,2.1366,2.1376,2.1387,2.1394,2.1394,2.1402,2.1398,2.1413,2.14,2.1421,2.1409,2.1414,2.1416,2.1417,2.1417,2.1402,2.1423,2.1463,2.1467,2.1419,2.1419,2.1418,0,2.1329,2.1349,2.1367,2.1371,2.138,2.1389,2.1393,2.14,2.1407,2.1416,2.142,2.1431,2.1437,2.1445,2.1444,2.1435,2.1465,2.1452,2.1465,2.1465,2.147,2.1469,2.151,2.1476,2.1476,2.1476,2.1476,0,2.1359,2.1376,2.1377,2.1388,2.1406,2.1405,2.1423,2.1426,2.1432,2.1443,2.1439,2.1449,2.1448,2.1459,2.1458,2.1475,2.1478,2.1478,2.1477,2.1478,2.1477,2.148,2.1478,2.1477,2.1477,2.1477,2.1477,0,2.1387,2.1389,2.1409,2.1416,2.1418,2.1431,2.1437,2.1447,2.1449,2.1463,2.1467,2.1469,2.1482,2.1482,2.1496,2.1496,2.1516,2.1514,2.1513,2.1512,2.1525,2.1523,2.1568,2.1573,2.1537,2.1537,2.1538,0,2.1406,2.1419,2.1427,2.1435,2.144,2.1452,2.1459,2.1459,2.1466,2.1476,2.1485,2.1497,2.1507,2.1527,2.1529,2.154,2.1538,2.1553,2.1539,2.1539,2.1536,2.1535,2.1536,2.1555,2.1555,2.1555,2.1556,0,2.1439,2.144,2.1451,2.1462,2.1471,2.148,2.1488,2.1494,2.1495,2.1504,2.1517,2.1524,2.1539,2.155,2.1561,2.1565,2.156,2.156,2.1564,2.1563,2.1562,2.1561,2.1519,2.1559,2.1558,2.1558,2.1558,2.1558,2.1462,2.1473,2.1481,2.1493,2.1499,2.1507,2.1517,2.1521,2.1531,2.1543,2.1543,2.1557,2.1564,2.1578,2.1583,2.1594,2.1588,2.1594,2.1595,2.1595,2.1596,2.1561,2.1596,2.1596,2.1596,2.1596,2.1595,0,2.1494,2.1499,2.151,2.1522,2.1532,2.1528,2.1537,2.1545,2.1557,2.1565,2.1575,2.1589,2.1601,2.1605,2.1616,2.1624,2.1622,2.1627,2.1625,2.1626,2.1601,2.1596,2.1628,2.1628,2.1628,2.1628,2.1628,2.1628,2.1511,2.1528,2.153,2.1551,2.1555,2.1569,2.1575,2.1582,2.1588,2.1604,2.1614,2.1617,2.1623,2.1635,2.1645,2.1646,2.165,2.1655,2.1655,2.1631,2.1628,2.1625,2.162,2.1657,2.1657,2.168,2.168,2.168]},{"header":{"parameterUnit":"m.s-1","parameterCategory":1,"la1":30.2991,"la2":30.254,"lo1":-89.0895,"lo2":-89.0444,"dy":0.0017,"dx":0.0017,"nx":28,"ny":28,"refTime":"2024-04-04T03:00:00:Z","depth":0,"parameterNumber":3,"parameterNumberName":"V-component_of_WINDS"},"data":[0,0,0,0,0,0,0,0,0,0,0,0,0,0,0,0,0,0,0,0,0,0,0,0,0,0,0,0,0,0,0,0,0,0,0,0,0,0,0,0,0,0,0,0,0,0,0,0,0,0,0,0,0,0,0,0,0,0,-3.5019,-3.5021,0,-3.5209,-3.5211,-3.5213,-3.5172,-3.5168,-3.5164,-3.5161,-3.5357,-3.5365,-3.5374,0,0,0,0,0,0,0,0,0,0,0,0,0,-3.462,-3.4628,-3.5018,-3.5021,-3.5023,-3.5209,-3.5211,-3.5214,-3.5172,-3.5168,-3.5163,-3.5159,-3.5354,-3.5364,-3.5374,0,0,0,0,0,0,0,0,0,0,0,0,0,-3.48,-3.463,-3.5018,-3.5025,-3.5027,-3.5208,-3.5211,-3.5214,-3.5173,-3.5168,-3.5162,-3.5157,-3.5351,-3.5363,-3.5376,-3.5562,0,0,-3.5415,-3.542,0,0,0,0,0,0,0,0,-3.479,-3.4815,-3.5021,-3.5025,-3.5028,-3.5161,-3.5142,-3.5331,-3.5174,-3.5118,-3.5161,-3.5155,-3.5296,-3.5313,-3.5361,-3.5571,-3.5579,-3.5416,-3.5424,-3.5429,-3.5433,0,0,0,0,0,0,0,-3.4778,-3.4806,-3.5094,-3.5024,-3.5028,-3.5019,-3.5038,-3.5178,-3.5235,-3.5122,-3.512,-3.5143,-3.5297,-3.5348,-3.5365,-3.5582,-3.5416,-3.5427,-3.5435,-3.544,-3.5956,-3.5962,0,0,0,0,0,0,-3.4762,-3.4796,-3.5088,-3.5099,-3.4893,-3.503,-3.5052,-3.5124,-3.5233,-3.5244,-3.5147,-3.514,-3.5329,-3.535,-3.5372,-3.5597,-3.5429,-3.5441,-3.5449,-3.595,-3.5957,-3.5964,0,0,0,0,0,0,-3.4754,-3.4789,-3.508,-3.4947,-3.4984,-3.5043,-3.5123,-3.513,-3.5182,-3.5252,-3.5262,-3.5189,-3.5326,-3.5353,-3.5515,-3.5603,-3.5447,-3.5459,-3.5943,-3.5952,-3.596,-3.605,0,0,0,0,0,0,-3.4743,-3.4786,-3.4857,-3.4949,-3.4991,-3.522,-3.5129,-3.5138,-3.5204,-3.5196,-3.5294,-3.5305,-3.5324,-3.5496,-3.5528,-3.5618,-3.5469,-3.5935,-3.5947,-3.5958,-3.6039,-3.6061,-3.6079,0,0,0,0,0,-3.4728,-3.4875,-3.4861,-3.4896,-3.5081,-3.5226,-3.5249,-3.5268,-3.5211,-3.5283,-3.5328,-3.5302,-3.5588,-3.5513,-3.5548,-3.5644,-3.593,-3.5944,-3.5957,-3.603,-3.6057,-3.6079,0,0,0,0,0,0,-3.4791,-3.4887,-3.4872,-3.5053,-3.5131,-3.5218,-3.531,-3.5295,-3.5391,-3.538,-3.5399,-3.5421,-3.5586,-3.5631,-3.5545,-3.583,-3.5751,-3.5772,-3.5795,-3.5821,-3.584,-3.5826,-3.5479,0,0,0,0,0,-3.4826,-3.4935,-3.5013,-3.5164,-3.5204,-3.5251,-3.5314,-3.5321,-3.5404,-3.5437,-3.5494,-3.5575,-3.5683,-3.5754,-3.5858,-3.6045,-3.6066,-3.6129,-3.6148,-3.6165,-3.6183,-3.6286,-3.6315,-3.6008,-3.6008,-3.6008,0,0,-3.4899,-3.4965,-3.5033,-3.5179,-3.524,-3.5353,-3.5279,-3.5401,-3.5486,-3.5455,-3.5612,-3.5656,-3.5748,-3.5924,-3.6004,-3.5966,-3.6272,-3.6182,-3.6194,-3.6204,-3.6303,-3.6332,-3.6358,-3.6017,-3.6016,-3.6014,0,0,-3.5091,-3.5151,-3.5284,-3.5347,-3.5442,-3.5471,-3.5503,-3.5593,-3.5622,-3.5778,-3.5758,-3.5859,-3.6045,-3.6111,-3.6169,-3.6386,-3.6366,-3.6419,-3.6524,-3.6625,-3.6649,-3.667,-3.6749,-3.6776,-3.6437,-3.6438,-3.6438,0,-3.517,-3.5339,-3.5354,-3.548,-3.5545,-3.5522,-3.5658,-3.5718,-3.5842,-3.5888,-3.5843,-3.6077,-3.6137,-3.6328,-3.6381,-3.6429,-3.6467,-3.6409,-3.6644,-3.6666,-3.6686,-3.6761,-3.679,-3.6443,-3.6443,-3.6442,-3.6442,0,-3.5432,-3.555,-3.5646,-3.5766,-3.5842,-3.5971,-3.6007,-3.6082,-3.6083,-3.6117,-3.6277,-3.6349,-3.6467,-3.6512,-3.6514,-3.6705,-3.6678,-3.6639,-3.656,-3.6721,-3.6792,-3.6821,-3.6452,-3.645,-3.6448,-3.6447,0,0,-3.5669,-3.5795,-3.5831,-3.5885,-3.5987,-3.6079,-3.6208,-3.6323,-3.6387,-3.6473,-3.6582,-3.674,-3.6705,-3.6771,-3.678,-3.6868,-3.7036,-3.6818,-3.682,-3.6857,-3.7251,-3.7281,-3.7314,-3.7023,-3.7028,-3.7033,-3.7244,0,-3.587,-3.6097,-3.6115,-3.6319,-3.6428,-3.6409,-3.6521,-3.6596,-3.6632,-3.673,-3.6769,-3.6882,-3.6826,-3.6866,-3.6952,-3.6997,-3.7116,-3.6982,-3.7125,-3.713,-3.7104,-3.735,-3.7382,-3.7578,-3.7271,-3.7276,-3.7279,0,-3.6135,-3.6229,-3.6444,-3.6532,-3.6578,-3.6679,-3.6786,-3.688,-3.6965,-3.6985,-3.7059,-3.7056,-3.7189,-3.7104,-3.7288,-3.7197,-3.7256,-3.7288,-3.7296,-3.7311,-3.7215,-3.7373,-3.7641,-3.7671,-3.7323,-3.7319,-3.7316,0,-3.6287,-3.6468,-3.662,-3.6667,-3.6773,-3.6844,-3.6891,-3.6971,-3.7039,-3.7133,-3.7178,-3.7286,-3.7345,-3.7429,-3.7455,-3.7391,-3.7639,-3.7556,-3.766,-3.7659,-3.7713,-3.771,-3.7996,-3.775,-3.775,-3.7749,-3.7748,0,-3.6511,-3.6644,-3.669,-3.6784,-3.6932,-3.6951,-3.7098,-3.7141,-3.7212,-3.7315,-3.7304,-3.74,-3.7429,-3.753,-3.7552,-3.7701,-3.7728,-3.7748,-3.7752,-3.775,-3.7748,-3.779,-3.7777,-3.7757,-3.7755,-3.7754,-3.7752,0,-3.6707,-3.6743,-3.6907,-3.6994,-3.7019,-3.7124,-3.7199,-3.7289,-3.7323,-3.7453,-3.7484,-3.7537,-3.7656,-3.7691,-3.7834,-3.7848,-3.8024,-3.8015,-3.7995,-3.7996,-3.8098,-3.8088,-3.8422,-3.8467,-3.8191,-3.8193,-3.8195,0,-3.6847,-3.6949,-3.7046,-3.7114,-3.7164,-3.7273,-3.7343,-3.7366,-3.7439,-3.7544,-3.7622,-3.7739,-3.7835,-3.8026,-3.8077,-3.8187,-3.8182,-3.8291,-3.8198,-3.8192,-3.8185,-3.8179,-3.8189,-3.8309,-3.8312,-3.8314,-3.8316,0,-3.7094,-3.7106,-3.7207,-3.7314,-3.7398,-3.7483,-3.7565,-3.7622,-3.7656,-3.7739,-3.786,-3.7934,-3.808,-3.8197,-3.8308,-3.8357,-3.8344,-3.8344,-3.8374,-3.8374,-3.8358,-3.8369,-3.8044,-3.8337,-3.8335,-3.8333,-3.8332,-3.8331,-3.7267,-3.7357,-3.744,-3.7552,-3.7616,-3.7693,-3.7783,-3.7828,-3.7929,-3.805,-3.8057,-3.8189,-3.8272,-3.842,-3.8475,-3.8579,-3.8547,-3.859,-3.8601,-3.8611,-3.8621,-3.8341,-3.8599,-3.8598,-3.8598,-3.8597,-3.8597,0,-3.7514,-3.7566,-3.7669,-3.7785,-3.7873,-3.7851,-3.7941,-3.8017,-3.8133,-3.8212,-3.8306,-3.8446,-3.8559,-3.862,-3.8733,-3.8804,-3.8801,-3.8834,-3.8829,-3.8841,-3.8642,-3.8605,-3.8835,-3.8835,-3.8834,-3.8834,-3.8834,-3.8834,-3.7653,-3.7804,-3.7827,-3.8009,-3.8061,-3.819,-3.8243,-3.8315,-3.8377,-3.8534,-3.8628,-3.8666,-3.8738,-3.8856,-3.896,-3.8975,-3.9017,-3.9054,-3.9066,-3.8879,-3.8855,-3.8832,-3.8797,-3.9063,-3.9063,-3.9256,-3.9258,-3.9259]}]]